Wind_Speed
24 25 25 26 27 28 28 27 27 27 27 27 26 24 23 23 22 21 21 21 20 20 19 17 16 15 15 15 15 14 14 14 15 18 20 21 22 23 23 24 23 22 20 20 19 18 17 15 13 12 12 12 12 12 12 11 10 11 10 10 10 12 13 14 15 16 15 15 16 18 20 19 17 17 18 18 18 17 19 20 20 20 20 21 21
22 23 24 26 27 28 28 28 27 27 28 28 27 25 25 24 23 23 23 22 22 21 21 20 19 18 17 17 17 17 16 15 15 16 18 20 22 24 25 25 25 24 23 22 21 20 19 18 17 15 14 15 15 15 15 14 13 13 13 13 12 12 13 13 14 15 16 16 17 17 19 21 20 18 18 19 19 19 19 20 21 21 21 21 21
21 21 23 25 27 27 27 28 28 28 28 28 27 27 26 25 25 25 24 24 23 23 22 22 22 21 20 19 19 20 20 18 16 16 17 18 21 24 26 27 26 26 26 25 24 23 22 21 20 19 17 17 17 17 17 17 15 15 15 15 15 14 14 14 14 15 16 17 17 17 18 20 21 20 19 18 19 20 20 19 20 21 21 21 21
20 21 23 24 26 27 28 28 28 29 29 28 28 27 26 26 26 26 26 25 25 25 24 24 24 24 24 23 21 21 21 21 19 18 17 17 19 22 25 28 28 28 28 27 26 25 25 24 22 22 21 20 19 19 19 19 18 17 17 17 17 18 17 16 15 15 16 17 18 18 18 19 20 21 21 20 19 20 21 20 19 20 20 21 21
21 21 22 23 25 26 28 29 29 29 29 28 27 27 27 27 27 27 28 27 27 26 26 26 26 26 25 25 24 23 23 23 22 21 20 19 18 20 23 27 29 29 29 29 29 28 27 26 25 24 24 24 22 21 21 21 20 20 19 19 19 19 20 19 17 17 17 17 18 19 19 20 21 21 21 21 21 21 22 21 20 20 20 20 21
22 21 21 23 25 26 27 28 29 29 29 29 28 27 27 28 28 28 28 28 28 28 28 28 27 27 27 26 26 26 25 25 24 23 22 21 20 20 21 24 28 30 31 31 30 29 29 28 27 27 27 27 26 24 23 22 23 22 21 21 21 21 22 22 21 19 19 18 19 20 20 21 22 23 22 22 23 23 23 23 21 20 20 20 21
25 23 22 23 25 25 25 26 27 27 27 28 28 27 27 27 28 28 28 28 28 29 29 28 28 28 28 27 28 28 28 27 27 26 24 23 23 22 22 23 25 29 31 32 32 31 31 30 30 30 30 29 28 27 26 25 25 24 24 23 24 23 23 23 23 23 21 20 20 20 20 21 22 23 23 23 23 22 23 24 24 22 20 20 20
28 27 25 24 25 25 24 24 25 25 25 25 26 27 26 26 27 27 27 26 27 28 29 29 28 27 28 28 28 29 29 29 28 27 26 25 25 24 23 23 24 26 29 32 33 33 33 33 32 32 32 31 31 30 29 28 27 27 26 25 26 26 25 25 25 24 24 23 22 21 21 21 21 22 23 24 24 22 23 25 26 24 22 20 19
31 31 28 27 26 24 23 24 24 23 23 24 25 26 25 25 26 26 26 24 24 25 26 28 28 25 24 24 26 27 29 29 28 27 27 26 26 26 26 25 24 25 27 30 33 34 34 34 33 33 33 32 32 32 31 31 30 30 29 28 28 27 27 27 26 25 25 25 25 23 22 22 21 21 23 24 24 24 24 25 25 24 24 23 20
31 32 31 29 28 26 25 24 24 24 23 23 23 24 24 24 24 24 24 23 21 20 21 25 26 23 19 18 20 22 24 24 23 24 25 26 27 27 28 27 26 26 27 28 31 33 34 35 34 34 34 33 33 34 33 33 32 32 31 31 30 30 29 29 28 27 25 25 25 25 25 23 22 22 23 24 25 25 26 26 24 24 25 25 22
27 29 31 31 31 30 28 26 26 25 24 23 22 23 23 23 23 23 22 22 21 19 18 21 23 22 18 15 16 18 18 18 18 18 21 23 25 27 28 28 27 27 27 28 30 31 33 34 34 34 35 35 34 34 35 35 34 34 34 34 33 32 32 31 31 29 27 25 25 26 26 25 24 23 23 24 26 26 27 28 26 25 26 26 24
24 25 28 31 32 32 32 30 28 27 26 25 23 23 23 23 23 23 23 23 22 21 20 20 21 22 21 18 16 16 16 16 16 16 17 19 22 25 27 28 28 28 27 28 29 31 32 33 34 35 35 35 35 35 35 36 36 36 37 37 36 35 35 34 33 32 30 28 26 26 26 27 26 25 25 25 26 27 28 29 28 26 27 27 25
25 23 24 27 29 31 34 33 32 30 28 27 26 25 25 25 25 25 25 24 24 23 22 21 21 23 24 23 19 17 16 17 18 18 18 18 19 22 25 27 28 28 28 28 29 31 31 33 35 35 35 36 36 36 36 37 38 38 39 39 39 39 38 36 35 35 33 31 29 27 27 28 29 27 26 26 27 27 27 29 29 28 27 27 26
24 23 21 22 24 28 32 34 34 33 31 30 29 28 27 27 27 27 26 26 26 26 25 24 23 23 24 25 24 22 19 18 18 19 19 20 20 21 23 26 27 27 28 28 30 31 31 32 34 35 36 37 37 37 37 38 39 40 41 41 41 41 40 39 39 38 36 34 32 30 29 30 31 30 28 28 28 27 27 29 30 30 28 28 27
23 23 21 20 21 24 28 32 35 34 34 33 32 30 29 28 28 28 28 28 28 28 27 26 26 25 25 26 27 26 24 22 21 19 19 20 21 22 24 26 27 27 28 29 30 31 31 32 33 34 36 37 37 37 38 38 39 41 42 43 43 43 42 41 42 41 39 37 35 33 32 32 33 32 30 29 29 28 28 29 30 31 30 28 28
22 22 20 20 21 21 23 28 33 35 35 35 34 32 30 30 30 29 29 30 29 29 29 28 28 28 27 27 28 28 27 27 26 24 22 21 22 24 26 28 29 29 30 30 31 32 32 34 34 35 36 37 37 37 38 39 39 41 43 43 44 45 44 42 43 44 42 39 38 37 35 34 35 34 32 32 31 30 28 29 31 31 30 28 28
21 19 18 19 21 21 21 23 29 34 36 35 34 33 32 31 31 30 31 31 31 30 30 30 29 29 29 29 28 28 28 29 29 28 28 27 27 27 28 29 31 32 33 33 33 33 33 33 35 36 37 38 38 37 38 40 41 41 42 43 45 46 45 43 44 45 44 42 41 40 38 37 36 36 34 34 34 31 29 30 30 31 31 29 29
21 18 17 18 20 21 20 21 25 30 34 34 34 33 33 33 32 32 32 32 32 32 31 31 31 31 30 30 29 28 29 31 31 31 31 32 32 32 32 33 34 34 35 36 36 36 35 35 35 36 37 38 39 38 39 42 43 43 43 43 46 48 45 43 45 46 46 45 44 43 41 40 39 37 36 36 36 34 32 30 30 31 31 29 28
22 20 19 19 20 21 20 20 23 26 30 33 33 33 34 34 34 34 34 34 35 35 34 33 32 32 32 32 31 31 31 33 34 34 35 35 36 37 38 38 38 36 37 38 38 38 38 38 38 37 37 38 40 40 41 42 44 45 45 45 48 48 45 45 47 47 47 47 47 46 44 42 40 39 38 38 38 37 34 31 30 31 30 28 29
21 20 20 20 22 22 22 22 23 24 27 31 33 33 34 35 35 35 36 36 37 37 37 36 35 34 34 34 34 34 34 35 37 37 38 39 40 40 41 41 40 39 40 41 40 40 39 40 40 40 40 40 41 42 42 43 45 47 46 47 48 47 45 46 48 49 49 49 49 48 46 45 43 41 40 40 40 40 36 32 30 31 29 28 30
20 20 19 20 22 23 23 23 24 25 27 30 32 33 33 34 35 36 37 38 39 40 40 40 39 37 37 36 36 36 37 38 39 39 39 40 42 43 43 41 40 42 44 43 42 41 40 41 42 42 42 43 43 44 44 43 45 48 49 47 47 46 47 48 49 50 51 51 51 51 49 48 46 44 42 42 42 42 38 33 31 31 30 30 30
21 20 20 20 22 23 25 25 26 28 30 31 31 32 33 35 35 37 38 40 41 42 42 42 42 41 39 38 38 38 39 41 41 39 39 41 43 45 44 42 42 44 45 44 43 42 41 42 43 43 43 44 45 46 46 44 45 48 49 46 46 48 49 50 50 51 52 52 53 53 52 51 50 47 44 43 43 43 39 34 32 32 31 30 30
23 22 21 21 22 24 26 27 29 31 31 32 33 34 35 36 36 37 38 40 41 42 42 42 42 42 41 41 41 41 42 43 42 40 40 41 43 45 45 44 45 46 45 45 44 43 42 43 43 42 43 44 45 46 47 46 47 49 48 46 46 48 51 52 52 53 53 54 55 55 54 53 51 50 47 45 44 43 40 35 33 34 33 31 31
24 23 23 22 23 25 27 29 32 34 34 34 36 37 37 37 37 38 38 40 41 42 42 42 43 43 44 44 44 45 45 45 45 44 43 44 45 45 45 45 46 47 47 45 43 42 43 44 43 43 44 45 46 47 48 48 49 50 49 48 48 49 50 53 54 55 56 56 57 58 56 54 52 51 48 45 44 43 40 37 35 35 34 32 31
25 24 25 24 24 25 27 28 31 35 37 38 39 39 40 40 40 40 41 41 42 43 43 44 44 45 45 46 46 47 48 48 48 47 47 47 47 46 46 46 47 47 47 45 43 42 44 44 43 44 45 46 47 48 48 49 50 51 51 51 52 51 52 53 55 56 57 59 59 59 57 55 53 50 48 46 45 45 42 39 38 37 35 33 30
28 25 25 25 26 26 27 28 30 34 37 40 41 42 43 43 43 44 44 45 45 46 46 46 46 47 47 47 48 49 49 49 49 49 49 49 48 47 47 46 46 46 46 45 43 43 46 46 45 44 46 47 48 49 50 51 51 52 52 52 53 53 54 54 56 57 58 59 60 59 58 55 52 49 48 48 47 46 44 41 39 37 35 33 29
29 26 25 26 27 28 29 30 31 32 36 40 42 44 45 46 46 47 47 47 47 47 48 48 49 48 48 48 49 50 50 49 48 48 49 49 48 47 46 46 46 46 45 44 43 44 47 47 44 42 44 46 48 50 51 52 50 50 50 51 52 54 56 56 57 58 58 58 59 59 58 56 52 49 49 49 49 48 46 42 39 37 35 33 29
29 28 27 26 27 29 31 32 33 34 36 39 41 44 46 47 47 47 47 48 48 48 49 49 49 48 48 49 49 50 50 49 49 48 48 47 46 45 44 44 44 45 44 44 45 47 48 46 42 42 45 47 49 49 50 52 51 51 53 55 55 56 58 58 58 60 60 60 60 61 61 59 55 52 50 50 50 50 47 43 39 37 36 34 30
29 29 27 26 27 28 30 32 33 34 35 37 39 41 44 44 45 45 45 46 46 47 48 48 48 49 49 48 48 47 47 47 47 46 45 44 44 44 44 43 43 43 44 44 46 48 49 48 47 48 49 51 52 53 53 54 54 54 55 57 57 58 60 61 61 62 63 62 62 63 64 62 58 55 53 52 52 50 48 44 41 38 37 35 30
26 27 27 26 25 26 27 28 29 30 31 32 33 34 35 36 37 37 38 39 41 42 44 45 46 47 46 45 44 43 43 43 43 43 42 42 42 43 42 42 42 42 43 44 45 47 49 49 50 50 50 51 53 54 55 55 56 57 58 58 59 60 62 63 63 64 65 66 65 66 67 65 61 59 57 55 53 51 49 46 42 39 38 35 30
21 23 23 23 23 24 24 25 25 26 27 28 28 28 27 28 29 30 31 33 34 35 37 38 38 39 40 39 39 38 38 38 37 37 38 39 39 40 40 41 41 42 43 45 47 48 49 50 51 51 52 53 54 55 56 57 58 60 60 60 62 63 65 66 67 67 68 68 67 67 68 68 65 62 60 57 54 50 48 46 43 41 39 36 31
20 20 20 21 21 22 22 23 23 24 25 26 26 25 25 26 27 27 28 28 29 30 31 32 32 32 33 33 33 33 34 34 35 35 36 38 39 40 40 40 41 42 43 45 48 49 50 51 52 53 53 54 54 55 56 58 59 61 61 62 64 65 66 68 69 68 68 69 70 70 70 69 68 65 61 58 56 52 48 46 44 43 40 36 31
22 21 21 22 22 22 22 22 23 23 23 24 24 24 25 26 27 27 26 26 27 28 29 29 29 30 31 32 32 33 34 35 36 37 37 38 39 40 41 41 42 42 43 44 46 47 47 48 51 53 54 55 55 55 57 60 62 64 64 64 64 65 67 68 68 68 69 70 71 72 71 70 69 67 63 60 58 55 49 46 44 43 41 36 31
24 24 24 24 24 24 24 25 25 25 24 25 25 25 25 26 26 27 26 26 27 27 29 30 31 32 33 34 35 36 37 37 38 39 39 39 40 40 41 41 42 43 44 45 46 47 48 49 51 53 56 58 59 59 61 63 66 68 69 69 68 68 68 68 69 71 72 72 72 73 72 71 71 70 66 62 59 56 51 46 44 44 41 36 31
26 25 25 26 26 25 25 25 25 24 25 25 24 25 25 26 27 27 28 28 29 30 31 32 33 34 35 36 36 37 37 38 38 39 40 40 41 42 42 42 43 43 44 45 46 47 49 50 52 54 57 59 61 63 65 67 69 72 74 74 74 72 71 70 71 73 74 75 75 75 74 73 74 72 68 64 61 57 53 49 46 44 41 36 30
27 27 27 28 27 26 25 25 25 25 25 25 25 26 27 28 29 29 30 30 31 32 33 34 34 34 35 35 35 35 35 35 36 38 40 41 42 43 43 43 42 42 43 44 45 47 50 51 53 55 57 60 63 65 67 69 72 74 76 78 78 77 74 71 70 71 74 78 79 78 77 76 75 73 69 66 63 59 55 50 46 44 41 35 30
27 28 28 27 27 26 26 26 26 26 26 27 27 27 28 28 29 29 29 30 31 32 32 33 33 32 32 32 32 32 33 34 36 39 40 41 42 41 41 41 41 42 42 43 45 48 50 51 53 56 58 60 62 63 64 66 67 68 70 73 76 77 75 71 70 70 72 75 77 79 78 76 75 74 71 69 68 62 54 48 45 42 39 34 32
26 26 26 25 25 26 27 27 27 27 27 27 27 27 27 27 28 28 27 27 28 29 30 30 30 30 30 30 31 31 33 34 36 38 39 39 39 38 39 39 40 41 42 44 45 48 49 50 52 55 58 59 59 60 61 61 60 59 60 63 66 67 66 66 67 70 73 74 75 77 75 72 74 77 74 72 70 62 50 45 43 40 37 34 34
26 26 25 25 25 25 25 25 26 26 26 25 25 25 25 24 24 25 25 25 25 27 28 28 29 29 30 31 32 33 33 34 35 35 35 36 36 37 38 40 41 42 43 45 46 48 49 50 52 54 55 55 55 56 56 56 55 55 55 54 54 53 54 57 63 70 76 77 77 80 78 71 69 73 77 74 68 58 48 45 44 41 36 34 32
25 24 24 23 23 23 23 23 23 23 23 23 23 22 22 22 22 23 24 24 24 26 28 30 30 30 32 33 33 33 33 32 33 34 35 36 37 38 39 40 40 41 42 44 45 46 47 49 50 51 52 51 50 49 48 48 48 50 49 47 46 44 45 51 57 65 75 80 81 84 81 69 61 67 74 69 59 51 47 45 42 38 35 32 30
22 21 21 20 20 20 20 20 20 20 20 21 20 19 19 20 21 22 24 25 26 27 29 31 31 30 31 32 32 31 31 31 32 34 35 36 36 37 37 38 38 38 39 41 41 42 43 44 46 47 48 47 45 44 42 41 41 42 40 41 42 39 36 41 45 52 68 82 83 79 75 68 65 68 67 58 50 46 44 41 37 34 32 30 29
21 20 19 19 18 18 18 18 18 18 18 19 19 19 19 20 21 22 23 25 27 27 28 30 30 28 28 29 30 30 30 30 31 32 33 34 34 34 35 35 34 34 35 36 36 36 37 38 40 41 42 42 42 43 42 42 43 42 38 35 34 31 29 33 40 49 63 74 71 64 65 70 69 62 54 47 43 42 39 34 30 29 28 28 28
21 21 21 20 20 20 20 20 21 20 20 20 20 20 20 21 22 23 24 26 27 26 26 27 28 28 26 26 26 27 28 29 29 30 32 33 33 32 32 30 29 29 29 30 31 31 32 32 32 33 34 35 37 39 40 43 46 47 45 37 31 29 26 26 35 46 56 64 64 59 59 60 54 44 38 35 33 32 30 27 26 27 28 28 27
17 19 20 20 19 19 19 19 19 19 18 18 19 20 21 22 23 23 24 24 24 24 23 24 26 28 28 26 25 26 28 29 29 29 29 29 29 28 27 26 26 26 26 26 27 27 27 27 27 27 27 27 29 32 35 37 39 39 36 26 14 12 16 22 32 39 43 48 51 50 47 42 35 28 25 23 22 22 24 24 25 25 23 21 19
15 16 18 18 17 17 17 17 17 17 17 18 19 20 21 21 21 21 22 21 21 22 24 24 24 26 27 27 26 26 27 28 28 27 25 24 24 24 23 24 25 26 25 24 24 24 24 25 25 25 23 22 22 25 27 27 26 24 21 12 1 10 17 21 23 26 29 34 37 36 32 27 22 18 17 17 18 20 21 20 18 17 15 14 15
16 16 16 16 16 16 17 18 18 18 18 19 19 19 19 20 20 20 21 21 22 23 25 25 26 27 28 29 28 27 25 25 25 24 23 21 21 22 23 23 24 24 24 23 23 23 23 23 24 24 22 20 19 19 18 15 13 11 8 4 2 9 16 17 15 12 12 15 18 16 12 8 9 12 14 14 14 13 12 11 11 11 11 14 16
16 17 16 16 16 17 18 19 19 19 19 19 19 19 20 21 22 22 22 22 24 25 26 27 28 28 28 28 27 27 25 24 24 23 23 21 20 21 23 23 22 22 22 21 21 20 20 20 20 19 19 18 16 14 11 9 7 4 1 3 5 6 6 4 2 3 5 9 10 10 10 10 12 13 12 9 7 6 6 8 9 10 13 15 16
17 18 18 18 18 19 19 19 19 20 20 20 21 21 22 22 23 24 24 24 25 25 26 25 24 24 24 24 25 25 26 25 25 25 24 22 20 20 21 22 21 20 19 18 18 17 16 15 15 15 16 16 15 14 11 7 5 6 7 8 9 11 12 13 13 11 12 16 18 17 15 13 12 10 8 4 4 6 8 9 11 13 15 16 17
18 19 19 19 19 19 19 19 19 20 20 21 21 21 21 22 23 23 23 23 23 23 23 22 21 22 22 23 24 24 24 24 25 25 24 21 19 19 20 21 20 19 19 18 17 16 15 13 12 12 12 13 13 14 14 13 12 9 7 5 5 6 6 5 4 1 4 8 9 9 8 8 7 5 3 5 7 8 10 12 14 15 16 16 17
15 16 16 16 16 16 16 17 17 17 17 17 17 17 18 19 20 20 20 21 21 21 21 21 22 22 22 22 23 24 23 23 23 23 22 20 19 19 20 20 20 20 20 18 17 16 15 13 11 10 9 9 8 9 10 11 12 12 11 11 11 12 12 11 10 9 8 7 7 6 6 5 3 4 5 7 9 11 12 14 15 15 16 17 17
11 11 11 11 12 11 12 13 14 14 14 14 14 15 15 16 16 17 17 17 18 18 19 19 20 21 21 22 23 23 22 22 21 21 21 20 20 20 21 22 22 21 21 20 19 18 17 15 12 10 8 6 6 6 8 9 9 9 9 10 10 9 9 9 8 8 7 6 4 2 0 2 4 6 8 10 12 13 14 15 16 16 16 16 17
Wind_Direction
224 224 223 222 222 221 222 223 224 224 223 225 225 225 227 230 231 233 236 238 240 243 248 252 251 249 251 254 257 258 258 259 255 250 249 249 249 246 241 239 240 240 239 239 241 245 248 253 255 260 270 278 284 290 296 304 310 315 323 330 334 335 335 335 334 333 333 333 331 332 335 337 336 327 321 320 321 322 322 322 324 324 323 323 322
222 222 221 219 219 220 220 222 223 224 224 225 226 226 227 230 233 235 238 240 242 245 248 253 255 254 253 253 257 261 262 262 261 258 254 251 251 250 246 243 240 241 243 242 243 245 249 253 256 258 263 270 276 282 287 293 300 306 312 317 320 322 324 326 327 328 328 329 329 328 328 332 336 331 323 318 315 315 316 316 318 320 320 320 320
221 222 221 219 218 217 218 221 223 223 224 224 226 228 229 231 234 237 241 243 244 246 248 250 254 257 258 256 255 259 264 265 266 265 262 256 253 252 251 248 244 241 243 245 245 246 248 251 255 258 260 263 268 274 280 286 293 299 305 309 313 315 314 315 317 319 320 323 327 328 324 325 328 329 326 321 315 312 311 311 311 312 315 317 318
220 220 220 219 217 216 216 218 220 222 224 225 226 228 231 234 235 238 242 245 246 247 249 250 252 254 257 260 259 259 264 268 270 270 269 264 259 255 253 252 250 246 243 244 246 247 248 250 253 257 260 262 264 268 274 281 287 293 298 302 307 310 311 311 312 311 312 315 320 324 325 324 324 324 323 322 318 314 311 309 308 308 310 313 315
221 219 217 217 217 216 215 216 219 220 223 226 228 229 233 236 237 239 241 244 248 249 250 251 253 255 257 261 264 264 265 268 271 272 272 270 266 261 257 254 253 251 247 246 246 246 248 250 251 255 259 262 264 267 271 277 282 287 292 296 299 303 306 308 311 309 307 308 311 316 321 323 323 323 323 322 320 317 314 311 307 306 307 311 313
225 222 217 215 216 216 215 216 218 220 223 227 230 231 234 237 239 240 241 243 247 251 253 253 255 258 260 261 264 267 267 267 268 270 271 271 269 266 262 259 255 254 252 249 248 247 248 250 251 253 256 261 264 266 269 273 278 282 287 291 294 297 300 304 308 309 308 306 306 309 313 317 320 321 322 321 320 319 317 311 307 306 307 310 313
228 227 222 217 217 215 214 216 218 220 221 225 230 232 234 236 238 239 240 241 244 249 255 257 257 259 262 263 263 265 266 266 265 266 266 267 267 266 265 264 260 257 255 253 252 250 250 250 251 252 254 258 262 264 266 270 274 278 282 285 289 292 295 298 302 306 308 307 305 305 307 311 316 318 318 319 319 319 315 311 311 312 309 308 311
228 230 227 222 221 219 215 214 217 218 220 222 227 231 232 234 236 239 241 241 242 247 254 260 262 261 261 262 262 262 263 263 262 262 261 261 263 264 264 264 264 261 259 256 255 254 253 252 252 253 255 257 260 263 265 267 270 274 277 280 283 287 290 293 297 302 305 306 306 306 304 305 310 314 314 315 318 317 312 310 313 314 310 307 307
228 230 230 226 225 224 219 216 215 216 217 219 222 226 229 231 234 239 243 243 243 245 249 256 260 261 260 259 258 258 259 261 260 259 258 258 259 262 263 264 265 265 263 260 257 256 256 255 255 256 257 258 260 262 264 266 268 271 273 275 278 282 285 288 291 296 300 303 306 306 305 304 306 309 311 313 315 314 311 311 313 312 309 307 306
229 230 230 228 226 226 224 221 217 215 216 215 217 221 225 228 231 235 240 243 243 242 242 246 252 258 258 254 252 254 256 261 262 260 257 257 256 258 261 262 262 263 264 263 260 258 258 259 259 259 259 260 261 262 263 265 267 270 271 273 275 278 280 283 286 290 294 299 303 305 304 304 305 306 307 309 312 313 312 313 313 310 307 307 307
236 234 233 231 228 226 226 225 222 219 218 217 218 220 223 226 229 232 237 241 243 241 237 238 246 256 261 255 250 254 259 265 269 266 261 257 256 255 258 260 261 261 261 262 262 261 260 261 262 262 262 262 263 263 263 264 267 269 270 271 273 275 276 279 282 285 288 293 299 302 303 304 304 303 302 303 307 310 313 314 313 309 306 306 307
245 243 240 237 232 227 224 224 225 223 221 221 221 222 225 228 232 235 238 242 246 246 243 241 244 254 263 265 259 257 263 268 271 272 268 263 259 257 257 259 261 261 260 261 262 263 262 261 262 263 263 264 265 265 264 265 265 267 269 270 271 272 274 277 279 282 285 288 292 297 301 303 302 301 299 299 302 307 311 313 312 308 306 307 306
245 246 246 245 241 233 227 223 224 225 223 223 224 225 227 229 233 237 241 246 250 251 249 248 248 252 261 269 272 268 265 267 268 271 272 270 266 263 261 261 262 262 262 261 261 263 263 263 262 262 263 264 265 266 266 266 266 265 266 268 270 272 274 276 277 279 281 284 287 292 297 299 299 299 297 295 297 301 305 309 310 308 306 306 305
243 244 246 250 249 243 234 226 223 224 224 224 225 227 228 229 232 237 243 247 250 253 254 255 255 255 259 267 275 278 274 270 269 269 270 272 272 270 269 268 267 266 265 263 262 262 263 264 263 264 264 264 265 266 267 267 267 266 266 267 270 272 274 275 276 277 279 282 285 288 291 294 296 297 295 292 293 298 300 303 307 307 306 305 303
239 242 244 251 253 251 243 232 225 224 225 226 226 227 229 231 233 237 242 246 250 254 258 260 262 264 264 265 272 278 282 283 280 276 273 272 273 273 272 271 271 271 270 267 265 263 263 263 264 264 265 265 266 267 268 268 267 267 267 267 269 271 273 275 276 276 278 280 283 285 287 289 292 294 293 291 291 294 297 300 303 304 303 303 301
234 237 242 249 252 254 251 240 230 226 226 227 228 228 230 233 235 238 242 246 251 255 258 262 264 267 268 268 269 275 283 288 289 287 284 279 276 274 272 272 272 273 272 270 269 266 264 263 263 263 264 264 265 267 268 268 267 267 267 268 268 270 272 275 276 276 277 279 281 283 284 286 289 291 291 291 290 292 293 295 299 300 300 300 298
227 231 240 249 252 254 255 248 237 229 227 229 230 231 233 235 238 240 242 246 251 255 259 262 265 267 270 271 272 274 278 283 287 290 289 286 282 277 274 273 273 273 273 273 272 271 269 267 266 265 265 265 266 266 267 268 267 267 267 268 268 268 271 274 276 276 277 278 280 281 282 284 286 288 288 289 289 289 288 290 295 296 296 296 295
226 228 237 247 252 254 254 250 242 234 231 231 232 232 234 237 239 241 243 246 250 255 259 261 264 266 268 270 272 273 274 276 279 283 285 285 284 281 277 274 272 273 273 273 274 274 274 273 271 269 268 268 268 267 267 267 268 267 267 267 267 267 270 273 274 276 277 277 278 280 281 282 283 285 285 285 286 286 285 287 290 290 291 294 294
231 231 237 244 250 252 251 247 242 237 234 234 234 234 235 238 240 243 245 247 249 253 257 260 262 264 266 267 269 270 271 271 273 275 278 280 281 280 278 275 274 274 273 273 274 274 275 276 275 274 273 272 270 269 268 268 269 269 269 268 267 268 270 270 271 273 275 275 276 278 279 279 280 280 280 281 283 284 282 284 287 286 288 292 292
234 234 238 245 249 251 249 244 240 237 235 235 235 236 237 239 242 244 245 247 248 251 254 258 260 262 264 265 265 267 269 270 271 272 274 275 276 277 277 278 279 278 274 273 274 274 274 275 276 276 277 277 275 273 272 271 271 271 271 270 270 272 273 271 271 272 273 274 275 276 276 276 276 276 277 277 280 281 280 280 283 284 283 285 286
232 235 239 245 250 251 248 244 240 237 236 236 236 237 239 241 243 244 246 247 248 249 252 254 257 259 262 264 264 266 268 269 270 271 272 272 273 274 276 279 280 277 273 272 273 274 274 274 275 276 278 279 279 279 277 276 275 274 273 272 273 275 274 272 272 272 273 273 274 273 273 273 273 273 274 275 277 279 277 276 278 280 278 277 279
231 235 240 246 250 250 246 243 241 240 238 237 237 238 240 242 243 244 246 247 247 249 250 252 254 257 260 263 265 266 267 267 268 270 271 273 272 273 275 277 276 274 272 272 274 275 275 275 275 276 277 278 278 279 280 280 279 277 277 278 277 276 275 274 273 273 272 272 272 272 272 273 273 273 272 273 274 275 275 274 273 275 275 273 273
234 235 240 245 249 250 246 242 240 240 239 238 239 240 240 242 244 245 246 247 248 249 250 252 254 256 258 261 263 264 265 266 267 268 270 271 271 272 273 274 273 273 273 273 275 277 277 277 277 278 278 277 277 277 278 279 278 278 279 279 278 276 276 275 273 272 272 272 271 271 272 272 273 273 272 272 272 273 274 272 269 270 270 269 269
239 237 239 244 248 250 248 243 240 240 239 239 240 241 242 243 244 245 247 248 249 250 252 253 255 256 257 258 259 260 262 264 266 268 268 269 269 270 270 271 272 273 273 275 277 278 279 278 278 277 276 275 275 275 276 276 276 276 278 278 277 276 275 274 272 271 272 272 271 271 271 272 272 273 273 272 270 270 270 268 265 264 264 263 265
243 239 238 241 245 250 251 248 244 240 238 238 240 241 243 245 246 247 248 249 250 251 252 253 254 255 256 257 257 258 260 261 264 265 266 266 267 268 269 271 272 273 275 276 278 279 280 279 277 277 277 276 275 274 274 274 274 274 275 275 274 274 274 273 272 272 271 271 271 272 272 272 273 273 272 270 267 267 267 265 262 260 259 260 262
244 242 241 240 242 247 250 251 248 244 240 240 241 242 243 245 246 247 248 249 250 251 251 252 253 255 256 256 257 257 258 260 261 263 264 265 267 270 273 273 274 275 276 276 278 280 280 278 276 276 276 276 275 274 274 273 272 272 273 272 271 271 272 271 272 273 273 273 274 274 274 274 274 272 270 267 265 264 264 263 260 258 257 257 258
243 243 243 242 242 243 245 247 247 247 244 242 242 243 244 245 246 247 248 248 250 250 251 251 252 253 254 255 256 257 258 259 260 261 264 266 269 272 274 274 274 275 276 277 279 281 280 279 280 280 277 275 275 274 273 272 270 270 273 273 272 272 272 272 271 272 274 275 275 275 274 272 270 268 266 265 264 263 263 261 257 255 255 254 253
240 241 242 241 240 240 242 243 244 246 246 244 243 244 245 246 247 249 250 251 251 252 251 251 251 252 254 255 255 256 257 258 260 263 267 271 274 275 276 276 277 278 278 279 280 281 280 280 282 282 280 279 278 276 275 275 273 273 274 274 273 273 272 270 268 268 268 270 272 273 272 270 268 265 263 262 262 262 261 259 254 252 251 251 249
237 238 240 240 240 240 241 243 244 245 247 247 246 246 247 249 252 253 254 255 255 255 254 254 253 254 255 256 257 259 261 263 266 270 274 277 278 278 278 278 278 278 278 279 280 280 281 281 281 280 280 282 282 282 282 282 280 279 277 276 274 273 271 269 267 265 265 265 266 267 268 268 268 266 263 260 259 260 259 256 252 249 247 246 246
237 236 236 237 238 239 240 242 243 244 245 247 248 248 250 252 254 257 258 259 259 259 259 258 258 259 261 263 264 266 268 270 272 274 275 276 277 277 278 279 278 278 278 279 279 280 281 283 284 283 283 284 285 285 284 283 282 280 279 276 274 273 271 270 269 267 266 264 263 262 263 263 263 262 260 258 257 258 258 254 250 246 244 242 241
238 238 238 239 239 240 240 240 240 239 240 242 245 246 249 252 254 256 258 260 262 263 263 263 264 264 266 267 268 269 270 271 272 273 274 275 276 277 279 281 281 281 281 281 281 282 283 285 286 286 285 284 284 284 284 283 281 280 279 277 274 272 269 268 268 268 267 265 263 262 261 260 259 258 256 254 253 254 254 252 248 244 241 239 237
236 237 239 242 243 244 244 244 243 242 243 244 247 248 250 253 255 256 257 259 262 263 265 266 266 266 266 266 267 268 269 271 272 273 274 276 278 279 281 282 283 283 284 284 285 286 287 288 289 289 287 286 286 287 287 286 284 282 280 277 275 273 271 270 270 269 267 266 264 262 261 260 259 257 253 250 249 248 248 247 244 240 238 236 233
237 237 237 238 240 241 242 242 242 243 245 246 247 249 251 252 254 255 256 256 258 259 261 263 263 264 265 265 267 268 270 272 274 275 276 277 279 280 281 282 283 285 287 288 289 290 291 291 292 293 292 291 291 292 290 289 286 284 281 278 276 274 273 272 271 268 266 264 263 262 260 259 258 256 253 249 246 244 243 241 238 236 234 232 230
238 238 238 238 238 238 239 240 241 242 243 244 246 248 249 251 253 254 255 255 257 258 259 261 262 264 265 268 270 271 273 274 275 276 278 279 280 282 284 287 290 292 294 295 296 296 297 296 297 297 296 295 295 294 292 291 288 286 284 282 279 275 272 268 265 264 263 262 261 260 258 257 256 254 251 248 245 242 239 235 232 232 230 227 227
235 235 235 236 236 237 238 240 242 243 243 245 247 249 250 252 253 255 256 257 258 260 261 263 265 267 269 270 272 273 275 277 279 281 284 286 289 291 293 295 296 297 298 299 299 299 299 299 298 297 296 295 294 292 291 291 289 287 285 283 280 277 273 267 263 261 261 260 258 255 253 254 254 253 250 247 243 240 236 232 230 229 227 222 224
233 232 232 233 234 236 238 240 242 243 244 245 248 250 252 254 256 257 258 259 260 262 264 265 267 269 271 273 275 278 281 284 287 290 292 293 295 296 296 297 297 298 298 299 300 300 299 298 297 296 295 292 290 289 289 289 288 287 285 283 280 276 272 268 264 262 260 259 258 254 251 250 251 251 250 246 240 235 231 229 228 226 220 217 223
236 236 236 236 236 236 238 240 241 243 245 246 248 250 252 254 255 257 259 261 262 264 266 268 270 272 275 278 282 286 289 292 293 294 295 295 295 296 297 298 298 299 299 299 299 298 298 296 295 294 291 289 288 288 288 288 287 286 285 281 276 272 269 267 266 263 260 258 257 255 252 249 248 248 247 242 236 231 225 221 221 217 213 215 227
236 237 237 237 236 236 237 239 240 242 243 244 246 248 250 252 255 257 259 261 264 267 270 273 277 280 283 286 289 291 293 293 293 293 293 294 295 296 296 297 297 297 297 297 296 295 294 293 291 289 288 288 289 289 289 289 288 288 288 283 276 271 269 267 265 264 261 259 257 254 252 247 244 243 243 240 235 229 219 213 211 209 209 218 231
233 234 234 236 237 238 240 241 242 243 244 244 246 248 251 253 256 259 262 264 268 271 275 279 283 286 288 290 291 291 291 291 290 290 291 292 294 295 295 296 297 297 297 296 295 293 292 290 289 287 288 290 292 293 294 294 294 296 295 289 281 274 267 263 263 262 258 254 251 249 247 243 239 239 240 237 231 223 215 210 209 209 213 223 233
230 232 233 234 235 236 238 240 241 243 245 247 249 252 255 258 261 264 267 270 273 277 280 283 286 288 289 288 288 288 288 288 289 291 292 294 295 297 298 298 299 299 298 297 295 294 293 292 292 292 293 295 297 300 303 305 306 305 300 291 285 280 268 259 261 262 257 249 240 235 235 237 240 241 238 230 218 211 208 207 208 212 219 226 230
225 226 227 228 231 234 236 239 242 245 248 252 255 256 259 262 265 269 273 275 278 280 282 283 283 284 285 285 285 286 289 291 293 295 297 298 299 300 300 301 301 300 299 298 298 298 299 299 299 301 303 305 308 312 316 319 320 318 307 292 287 285 273 260 257 258 252 242 231 223 224 229 231 230 223 211 199 198 201 203 207 214 220 224 227
216 217 219 221 223 226 230 233 236 239 244 249 252 253 254 256 260 263 267 271 273 275 277 278 279 280 283 285 287 289 291 294 296 298 299 300 300 301 301 302 302 301 301 302 304 307 308 308 309 311 315 318 323 326 330 334 335 334 326 307 290 284 281 267 254 245 238 231 222 218 222 222 217 209 200 191 187 190 194 197 204 212 220 227 227
214 216 218 219 221 226 231 236 239 241 243 247 251 253 254 258 262 264 265 268 271 273 275 277 279 280 280 282 286 291 293 295 297 299 299 299 300 301 302 303 305 307 310 312 314 316 317 317 318 320 323 327 331 334 338 341 340 338 336 326 303 285 276 254 228 217 215 213 210 208 209 205 196 185 179 178 181 184 187 193 204 213 221 225 219
217 221 222 221 224 230 237 241 245 248 249 251 253 256 258 262 265 267 269 271 275 276 277 278 280 281 281 283 286 291 294 296 296 297 297 297 299 301 303 307 311 315 318 319 318 318 320 321 323 324 323 323 327 333 339 344 343 339 338 337 313 253 223 200 184 179 181 186 187 185 182 176 167 161 164 170 177 184 191 199 207 211 213 214 213
208 216 220 220 221 228 235 240 244 248 249 250 253 256 258 260 263 265 268 271 273 275 276 277 279 283 286 289 290 290 291 292 294 294 294 295 298 301 305 310 314 317 320 320 318 318 319 320 321 323 320 313 312 319 330 341 346 340 333 330 30 137 138 140 143 144 147 152 154 154 153 152 149 154 166 177 187 192 193 197 201 202 203 213 227
221 225 227 226 224 228 235 240 245 248 251 254 257 259 260 262 264 266 268 270 272 274 276 278 280 283 286 287 288 288 288 289 290 291 291 293 297 301 303 307 312 317 321 323 323 323 326 326 324 324 324 318 308 307 314 330 347 353 344 317 160 123 115 112 111 117 134 146 144 140 139 149 168 179 183 184 184 185 186 192 201 210 223 235 240
238 240 239 235 231 233 238 243 248 252 255 257 259 260 261 263 264 265 266 268 271 274 276 279 282 285 285 284 284 284 284 284 284 285 286 290 295 298 299 302 309 316 322 326 328 331 337 341 339 335 337 336 328 317 308 300 298 306 283 162 163 163 165 182 276 284 241 224 219 222 230 224 202 185 171 161 165 186 209 222 231 240 246 249 250
245 248 248 247 244 244 246 248 252 255 256 257 258 259 260 262 264 266 267 269 270 273 275 278 280 281 281 281 281 281 281 281 280 280 281 284 288 292 293 296 303 310 317 324 329 334 343 353 358 358 360 2 1 359 359 354 323 290 267 256 262 271 277 284 287 272 241 229 228 224 214 195 169 150 140 156 206 229 241 249 254 255 254 255 257
249 252 254 254 253 253 252 253 254 256 257 258 259 260 261 262 264 265 268 269 270 271 272 272 273 273 275 277 278 278 279 280 279 278 279 280 281 283 286 288 292 299 306 312 319 326 334 348 4 13 16 19 23 29 34 37 35 28 19 2 341 337 341 347 350 277 204 201 196 184 162 139 125 129 167 217 237 247 254 258 261 263 264 264 262
247 249 251 253 255 256 256 256 257 258 259 260 261 261 261 262 263 264 266 267 268 269 269 269 270 271 271 273 275 276 278 279 278 277 277 278 278 278 280 281 285 291 297 301 305 311 317 326 339 353 3 12 24 34 39 41 42 42 42 44 46 48 49 51 55 59 67 79 92 101 108 119 152 200 228 246 255 258 260 263 267 270 271 270 268
242 244 246 250 254 257 257 257 258 260 261 263 264 263 262 262 262 263 265 266 267 268 269 270 272 273 273 273 274 275 277 277 278 277 276 277 277 278 278 279 281 285 289 292 294 297 300 302 309 319 332 347 2 13 20 24 25 27 31 35 38 40 40 39 39 41 44 47 53 63 165 237 249 255 259 264 267 268 270 273 274 274 273 272 270
Height
3158 3159 3162 3164 3167 3169 3171 3173 3175 3177 3179 3181 3182 3185 3186 3188 3189 3191 3192 3194 3195 3197 3198 3199 3201 3202 3203 3203 3204 3205 3206 3207 3208 3209 3210 3211 3211 3212 3214 3215 3217 3218 3220 3221 3222 3223 3223 3224 3224 3225 3225 3225 3226 3226 3226 3227 3227 3227 3227 3227 3227 3227 3226 3226 3225 3224 3224 3223 3222 3221 3220 3219 3219 3219 3217 3217 3216 3216 3215 3214 3213 3212 3211 3211 3210
3156 3157 3160 3162 3164 3166 3169 3171 3173 3175 3177 3178 3180 3182 3184 3186 3187 3189 3190 3192 3194 3195 3196 3197 3198 3199 3201 3202 3202 3203 3204 3206 3206 3207 3208 3209 3210 3210 3211 3213 3215 3216 3217 3218 3220 3221 3222 3222 3222 3223 3224 3224 3224 3225 3225 3225 3226 3226 3226 3226 3226 3226 3226 3225 3225 3224 3223 3222 3222 3221 3219 3218 3217 3217 3216 3215 3214 3214 3214 3213 3211 3210 3209 3208 3208
3154 3156 3158 3159 3162 3164 3167 3169 3171 3172 3174 3176 3178 3180 3182 3184 3185 3187 3188 3190 3192 3193 3194 3196 3196 3197 3198 3200 3201 3201 3202 3204 3205 3205 3207 3208 3208 3209 3209 3210 3212 3213 3215 3216 3217 3218 3219 3220 3221 3221 3222 3222 3223 3223 3223 3224 3224 3225 3225 3225 3224 3224 3224 3224 3224 3223 3222 3221 3221 3220 3219 3218 3216 3215 3215 3214 3213 3212 3212 3211 3210 3209 3207 3206 3205
3152 3154 3156 3158 3160 3162 3164 3166 3168 3169 3171 3173 3175 3178 3179 3181 3183 3185 3186 3188 3189 3191 3192 3193 3194 3195 3196 3197 3198 3200 3200 3201 3203 3204 3205 3206 3207 3207 3207 3208 3208 3210 3212 3213 3214 3215 3216 3217 3219 3219 3219 3220 3221 3221 3221 3222 3222 3223 3223 3223 3223 3223 3223 3223 3223 3222 3221 3221 3220 3219 3218 3217 3216 3215 3213 3212 3212 3211 3210 3209 3209 3207 3206 3205 3203
3151 3152 3154 3156 3158 3159 3161 3163 3165 3167 3169 3171 3173 3176 3177 3179 3181 3183 3184 3186 3187 3188 3189 3191 3192 3193 3194 3195 3196 3197 3199 3199 3200 3202 3202 3204 3205 3205 3206 3206 3206 3207 3209 3210 3212 3213 3213 3214 3216 3217 3217 3217 3218 3219 3220 3220 3220 3221 3221 3221 3222 3222 3221 3221 3221 3221 3220 3219 3218 3217 3216 3215 3214 3213 3212 3210 3209 3209 3208 3207 3207 3206 3204 3203 3202
3149 3151 3153 3154 3155 3157 3159 3160 3162 3164 3167 3169 3171 3173 3175 3177 3178 3180 3182 3184 3185 3185 3187 3188 3189 3190 3192 3193 3194 3195 3196 3197 3198 3199 3200 3201 3202 3203 3203 3204 3204 3205 3206 3207 3208 3210 3211 3212 3213 3214 3214 3215 3216 3217 3218 3218 3218 3218 3219 3219 3219 3219 3219 3219 3218 3218 3218 3217 3217 3216 3215 3214 3212 3211 3210 3209 3207 3207 3206 3205 3204 3204 3202 3201 3200
3147 3149 3151 3153 3154 3155 3157 3158 3160 3162 3165 3167 3169 3171 3173 3174 3176 3177 3179 3181 3183 3183 3184 3185 3187 3188 3189 3191 3192 3193 3193 3194 3195 3196 3198 3198 3199 3200 3201 3202 3202 3202 3203 3204 3205 3206 3208 3209 3209 3210 3211 3212 3213 3214 3215 3216 3216 3216 3216 3216 3216 3216 3217 3217 3216 3215 3215 3215 3215 3214 3213 3212 3211 3210 3208 3207 3206 3205 3204 3202 3201 3201 3200 3199 3198
3145 3146 3149 3151 3152 3153 3155 3157 3159 3161 3163 3165 3167 3168 3170 3172 3173 3175 3176 3178 3181 3182 3182 3183 3184 3186 3187 3188 3189 3190 3190 3191 3192 3193 3194 3196 3196 3197 3198 3199 3199 3200 3200 3201 3202 3203 3204 3205 3206 3207 3208 3209 3210 3211 3213 3213 3213 3213 3214 3214 3213 3213 3214 3214 3213 3213 3212 3212 3212 3212 3211 3210 3209 3208 3207 3205 3204 3203 3202 3200 3199 3198 3197 3196 3196
3141 3143 3145 3148 3150 3152 3154 3156 3157 3159 3161 3163 3164 3166 3168 3169 3171 3172 3173 3175 3178 3180 3181 3181 3181 3182 3184 3185 3186 3187 3187 3187 3188 3189 3191 3192 3194 3194 3195 3196 3197 3197 3198 3198 3199 3200 3201 3202 3203 3204 3205 3206 3207 3208 3209 3210 3210 3210 3211 3211 3211 3210 3211 3211 3210 3210 3210 3209 3209 3209 3209 3208 3207 3206 3205 3203 3202 3201 3199 3198 3197 3196 3194 3193 3193
3138 3140 3142 3145 3148 3150 3152 3154 3156 3157 3159 3160 3162 3164 3166 3167 3169 3170 3171 3173 3175 3177 3179 3179 3179 3179 3181 3183 3183 3184 3184 3184 3185 3187 3188 3189 3191 3191 3192 3193 3194 3194 3195 3195 3196 3196 3197 3198 3199 3201 3202 3203 3204 3204 3205 3206 3207 3207 3207 3207 3207 3207 3207 3207 3207 3207 3207 3207 3206 3206 3205 3205 3204 3203 3202 3201 3200 3198 3197 3196 3195 3194 3192 3191 3191
3135 3138 3139 3142 3145 3148 3150 3152 3154 3155 3157 3158 3160 3162 3164 3165 3166 3168 3169 3170 3172 3174 3176 3177 3177 3177 3178 3180 3181 3181 3182 3183 3183 3184 3185 3186 3187 3188 3189 3189 3190 3191 3192 3192 3192 3193 3194 3195 3196 3197 3198 3199 3200 3201 3202 3202 3203 3203 3203 3204 3204 3204 3204 3204 3204 3204 3204 3204 3203 3203 3202 3202 3202 3201 3199 3199 3197 3196 3195 3194 3193 3192 3190 3189 3188
3133 3135 3137 3139 3142 3144 3147 3149 3151 3153 3155 3156 3158 3160 3162 3163 3164 3165 3167 3168 3170 3172 3173 3174 3176 3176 3176 3177 3179 3180 3180 3181 3182 3182 3183 3184 3185 3185 3186 3186 3187 3188 3188 3189 3189 3190 3191 3191 3192 3193 3193 3195 3196 3197 3198 3199 3199 3199 3199 3199 3200 3200 3200 3200 3200 3200 3200 3201 3200 3200 3199 3199 3198 3198 3197 3196 3195 3193 3192 3191 3190 3189 3187 3186 3186
3131 3133 3135 3136 3138 3141 3143 3146 3149 3151 3153 3154 3156 3158 3159 3160 3162 3163 3164 3166 3167 3169 3170 3172 3173 3174 3174 3174 3175 3177 3178 3179 3180 3180 3181 3182 3182 3183 3183 3183 3184 3184 3185 3185 3186 3186 3187 3188 3188 3188 3189 3190 3191 3192 3193 3194 3195 3196 3195 3195 3195 3196 3196 3197 3197 3197 3197 3197 3197 3197 3197 3196 3195 3195 3194 3193 3191 3190 3189 3188 3187 3186 3185 3184 3183
3129 3131 3132 3134 3135 3137 3140 3143 3146 3148 3150 3152 3153 3155 3156 3158 3160 3161 3162 3164 3165 3166 3167 3169 3170 3171 3172 3172 3172 3173 3175 3176 3177 3178 3179 3179 3180 3180 3180 3180 3180 3181 3181 3182 3182 3183 3183 3184 3184 3184 3185 3186 3187 3187 3188 3190 3191 3191 3191 3191 3191 3192 3192 3193 3192 3193 3193 3193 3193 3193 3193 3192 3192 3191 3190 3189 3188 3187 3186 3185 3184 3183 3182 3181 3180
3127 3128 3130 3131 3132 3134 3136 3139 3142 3145 3147 3149 3150 3152 3154 3155 3157 3159 3160 3161 3162 3163 3164 3166 3167 3168 3169 3170 3170 3170 3170 3172 3174 3175 3176 3177 3177 3178 3178 3177 3177 3177 3178 3178 3178 3179 3180 3180 3180 3180 3180 3181 3182 3183 3184 3185 3186 3186 3186 3186 3187 3187 3188 3188 3188 3188 3189 3190 3189 3189 3190 3189 3188 3187 3186 3185 3184 3183 3182 3181 3180 3179 3178 3178 3177
3124 3126 3128 3129 3130 3131 3133 3136 3139 3142 3144 3146 3147 3149 3151 3152 3154 3156 3158 3158 3159 3160 3161 3162 3164 3164 3166 3167 3168 3168 3168 3168 3169 3170 3172 3173 3174 3175 3174 3174 3174 3174 3174 3174 3174 3175 3175 3175 3175 3175 3176 3176 3177 3179 3179 3180 3181 3181 3181 3182 3182 3182 3183 3184 3184 3183 3185 3186 3185 3185 3186 3185 3184 3183 3182 3182 3181 3180 3179 3177 3176 3176 3175 3174 3174
3123 3124 3125 3126 3128 3129 3131 3133 3136 3138 3141 3142 3144 3146 3148 3150 3151 3153 3155 3156 3157 3157 3158 3160 3161 3162 3162 3163 3164 3165 3166 3166 3165 3166 3167 3168 3169 3170 3171 3170 3170 3170 3169 3170 3170 3170 3171 3171 3171 3171 3172 3172 3173 3174 3175 3174 3175 3176 3177 3177 3177 3177 3179 3181 3180 3179 3180 3182 3181 3181 3181 3180 3180 3179 3178 3177 3177 3177 3176 3174 3173 3172 3171 3171 3170
3121 3122 3123 3124 3125 3127 3128 3130 3133 3135 3137 3139 3141 3143 3145 3147 3148 3150 3151 3153 3154 3155 3156 3157 3158 3158 3159 3160 3161 3162 3163 3163 3163 3163 3163 3163 3164 3165 3166 3166 3166 3166 3166 3166 3166 3166 3166 3167 3167 3167 3168 3168 3169 3170 3170 3169 3169 3170 3172 3173 3172 3172 3174 3177 3176 3175 3176 3176 3176 3176 3176 3176 3176 3175 3174 3173 3173 3172 3172 3171 3170 3169 3168 3167 3167
3118 3119 3121 3122 3123 3125 3126 3128 3130 3132 3134 3136 3138 3140 3142 3144 3145 3147 3148 3150 3151 3152 3152 3153 3154 3155 3156 3157 3158 3158 3159 3160 3160 3160 3160 3160 3160 3160 3160 3160 3161 3161 3162 3162 3162 3162 3162 3162 3163 3163 3164 3164 3164 3165 3166 3166 3165 3166 3167 3168 3167 3167 3170 3172 3171 3170 3171 3171 3171 3171 3171 3171 3171 3171 3170 3168 3168 3168 3167 3167 3166 3165 3164 3164 3163
3116 3117 3118 3119 3120 3122 3124 3126 3127 3129 3131 3133 3135 3137 3139 3141 3142 3143 3144 3146 3147 3148 3149 3149 3150 3151 3152 3153 3154 3154 3155 3155 3156 3157 3157 3157 3156 3156 3155 3155 3155 3156 3157 3157 3158 3158 3158 3158 3158 3159 3159 3160 3160 3161 3162 3162 3162 3162 3162 3163 3162 3164 3167 3167 3166 3165 3165 3165 3165 3165 3165 3165 3166 3166 3165 3164 3163 3163 3163 3163 3162 3161 3160 3160 3159
3114 3114 3115 3116 3117 3119 3121 3123 3125 3126 3128 3130 3132 3134 3135 3137 3138 3139 3141 3142 3143 3144 3145 3146 3147 3147 3148 3149 3150 3150 3151 3151 3152 3153 3153 3153 3153 3152 3151 3151 3151 3151 3152 3152 3153 3153 3154 3154 3154 3155 3155 3155 3155 3155 3156 3157 3157 3156 3156 3157 3159 3161 3161 3161 3161 3160 3160 3159 3159 3159 3159 3159 3159 3160 3160 3159 3158 3158 3158 3158 3158 3157 3155 3155 3155
3111 3112 3112 3113 3115 3116 3117 3119 3121 3123 3124 3127 3129 3130 3132 3133 3134 3135 3136 3137 3139 3140 3141 3142 3143 3143 3144 3145 3145 3146 3147 3147 3148 3148 3149 3149 3149 3148 3147 3147 3147 3146 3146 3146 3147 3148 3149 3149 3149 3150 3151 3150 3150 3150 3150 3151 3152 3150 3151 3153 3154 3155 3155 3154 3154 3154 3153 3153 3152 3152 3152 3153 3153 3153 3154 3154 3153 3152 3153 3153 3153 3152 3151 3150 3150
3108 3109 3110 3111 3112 3113 3114 3116 3118 3119 3121 3124 3126 3127 3128 3129 3130 3131 3132 3133 3134 3135 3136 3137 3138 3139 3140 3141 3141 3142 3142 3142 3143 3144 3145 3144 3144 3144 3144 3143 3142 3142 3141 3142 3143 3144 3144 3144 3145 3145 3145 3145 3145 3144 3144 3145 3145 3144 3145 3147 3147 3147 3148 3147 3146 3146 3146 3145 3145 3144 3145 3146 3147 3147 3148 3148 3148 3148 3148 3149 3148 3147 3146 3146 3146
3105 3106 3107 3108 3109 3110 3111 3112 3114 3115 3118 3120 3122 3123 3124 3125 3125 3127 3127 3128 3130 3131 3132 3133 3134 3135 3136 3136 3137 3137 3137 3137 3138 3139 3140 3140 3139 3139 3139 3139 3138 3137 3137 3138 3139 3139 3139 3139 3140 3140 3139 3139 3139 3139 3139 3139 3138 3139 3140 3140 3140 3140 3140 3139 3138 3138 3138 3137 3137 3137 3138 3139 3140 3141 3142 3143 3143 3144 3144 3143 3143 3142 3141 3141 3141
3101 3103 3104 3105 3106 3107 3108 3109 3110 3112 3114 3116 3117 3119 3120 3120 3121 3122 3123 3124 3125 3126 3128 3128 3129 3130 3131 3131 3132 3133 3133 3133 3133 3134 3134 3134 3134 3134 3134 3135 3134 3134 3133 3134 3135 3135 3134 3133 3133 3134 3133 3133 3133 3133 3133 3132 3132 3133 3133 3133 3133 3133 3133 3132 3130 3130 3130 3129 3129 3130 3132 3133 3135 3136 3137 3138 3137 3138 3138 3137 3137 3137 3136 3135 3136
3098 3100 3100 3102 3103 3104 3105 3106 3107 3108 3110 3111 3113 3114 3115 3116 3117 3118 3119 3120 3121 3122 3123 3124 3124 3125 3126 3127 3127 3127 3128 3129 3129 3128 3128 3128 3129 3130 3130 3130 3130 3130 3129 3129 3130 3130 3128 3126 3126 3127 3127 3127 3126 3126 3126 3126 3126 3125 3125 3126 3126 3126 3126 3125 3123 3122 3122 3123 3123 3124 3126 3127 3129 3130 3131 3131 3130 3131 3132 3131 3131 3131 3131 3130 3131
3094 3096 3097 3098 3100 3101 3102 3103 3103 3104 3106 3107 3109 3110 3111 3112 3113 3113 3114 3115 3117 3118 3119 3119 3120 3120 3121 3122 3122 3123 3124 3124 3123 3122 3122 3123 3125 3126 3126 3126 3125 3125 3125 3125 3125 3124 3121 3119 3120 3121 3121 3120 3119 3119 3118 3119 3119 3119 3119 3120 3120 3119 3118 3117 3116 3114 3115 3116 3116 3116 3118 3120 3121 3122 3123 3124 3124 3125 3126 3126 3125 3125 3125 3126 3127
3091 3092 3094 3095 3096 3097 3098 3099 3100 3101 3102 3103 3104 3105 3106 3107 3108 3109 3111 3112 3113 3114 3115 3115 3115 3116 3116 3117 3117 3118 3119 3119 3119 3118 3119 3119 3120 3120 3121 3121 3121 3120 3120 3120 3120 3118 3115 3114 3114 3114 3114 3113 3113 3112 3112 3112 3112 3113 3112 3111 3111 3110 3108 3107 3105 3104 3105 3107 3107 3107 3107 3109 3111 3113 3115 3116 3117 3118 3120 3121 3121 3120 3120 3120 3122
3087 3089 3090 3091 3092 3093 3094 3095 3096 3097 3097 3098 3099 3100 3102 3104 3105 3106 3107 3109 3109 3110 3111 3111 3111 3111 3112 3113 3113 3114 3114 3115 3116 3116 3115 3115 3115 3115 3116 3116 3116 3116 3116 3115 3114 3112 3109 3108 3108 3108 3107 3107 3106 3106 3106 3105 3105 3105 3104 3102 3102 3100 3098 3096 3094 3093 3093 3095 3095 3095 3095 3097 3100 3102 3104 3106 3108 3110 3113 3114 3115 3115 3114 3115 3116
3084 3085 3086 3087 3088 3090 3091 3091 3092 3093 3094 3094 3095 3097 3099 3100 3101 3102 3103 3104 3105 3106 3107 3107 3107 3108 3109 3110 3111 3111 3111 3112 3112 3112 3111 3111 3110 3109 3109 3110 3110 3111 3110 3109 3108 3106 3104 3103 3102 3102 3101 3101 3101 3100 3099 3099 3097 3096 3095 3094 3093 3091 3089 3087 3085 3085 3084 3084 3084 3083 3083 3085 3088 3090 3091 3093 3096 3100 3104 3107 3108 3109 3109 3109 3111
3081 3082 3083 3084 3085 3087 3088 3089 3090 3090 3090 3091 3092 3094 3095 3096 3097 3098 3099 3100 3101 3102 3102 3103 3104 3105 3105 3106 3107 3107 3107 3107 3107 3107 3107 3106 3105 3105 3104 3104 3104 3104 3104 3103 3101 3100 3099 3098 3096 3095 3094 3094 3093 3092 3091 3089 3086 3085 3084 3084 3083 3082 3080 3077 3076 3077 3076 3076 3076 3075 3074 3074 3077 3079 3080 3082 3085 3088 3093 3097 3100 3102 3103 3104 3105
3078 3080 3081 3082 3083 3084 3085 3086 3087 3087 3087 3088 3089 3091 3093 3093 3094 3094 3096 3097 3098 3098 3099 3099 3100 3101 3101 3102 3102 3103 3103 3103 3102 3102 3102 3101 3100 3100 3099 3099 3098 3097 3097 3096 3095 3094 3093 3091 3089 3088 3086 3084 3084 3083 3082 3079 3076 3074 3073 3073 3071 3070 3069 3068 3068 3069 3068 3067 3067 3067 3066 3067 3069 3070 3072 3074 3076 3078 3082 3086 3090 3093 3096 3098 3099
3076 3077 3078 3079 3080 3081 3082 3083 3084 3085 3086 3086 3087 3088 3089 3090 3090 3091 3092 3094 3094 3095 3095 3096 3096 3097 3097 3097 3098 3098 3098 3098 3098 3097 3097 3096 3096 3096 3095 3094 3093 3092 3092 3090 3089 3088 3087 3084 3081 3079 3076 3074 3074 3073 3071 3068 3065 3062 3061 3060 3060 3059 3058 3059 3059 3059 3058 3057 3058 3058 3058 3059 3060 3061 3064 3068 3070 3072 3074 3077 3080 3084 3088 3091 3093
3074 3075 3076 3076 3077 3078 3079 3080 3081 3083 3083 3084 3084 3085 3086 3087 3087 3088 3089 3090 3091 3091 3092 3092 3093 3093 3093 3094 3094 3094 3094 3093 3093 3093 3092 3091 3091 3091 3090 3089 3087 3086 3085 3084 3081 3080 3078 3076 3073 3071 3067 3065 3063 3062 3060 3057 3054 3050 3048 3048 3047 3046 3047 3048 3049 3047 3046 3046 3046 3046 3046 3047 3048 3050 3054 3058 3063 3067 3069 3070 3072 3076 3081 3084 3086
3071 3072 3073 3073 3075 3076 3077 3078 3079 3080 3081 3081 3082 3082 3083 3084 3085 3085 3086 3087 3088 3088 3088 3088 3089 3089 3089 3089 3089 3089 3089 3088 3088 3087 3086 3085 3085 3084 3084 3082 3081 3079 3078 3077 3075 3073 3070 3068 3066 3063 3060 3056 3054 3052 3049 3047 3043 3040 3037 3034 3033 3033 3033 3034 3034 3034 3033 3033 3032 3033 3035 3036 3036 3038 3043 3048 3052 3057 3061 3063 3065 3069 3074 3077 3080
3068 3069 3069 3071 3072 3074 3075 3076 3077 3078 3078 3079 3080 3080 3080 3081 3082 3082 3083 3083 3083 3083 3083 3084 3085 3085 3085 3085 3084 3084 3083 3083 3081 3080 3080 3079 3078 3078 3077 3076 3075 3073 3072 3071 3069 3067 3064 3061 3058 3056 3053 3049 3046 3043 3040 3037 3033 3029 3025 3022 3020 3018 3017 3017 3017 3018 3019 3018 3016 3018 3022 3024 3025 3027 3033 3038 3041 3046 3051 3055 3059 3063 3068 3071 3073
3064 3066 3067 3069 3070 3071 3072 3073 3074 3074 3075 3076 3076 3076 3077 3077 3078 3078 3078 3078 3078 3079 3079 3079 3080 3080 3080 3080 3079 3079 3078 3077 3076 3075 3074 3073 3073 3072 3071 3070 3068 3067 3066 3065 3063 3060 3058 3055 3052 3049 3045 3042 3039 3036 3033 3029 3024 3019 3014 3010 3005 3002 3000 3001 3003 3005 3007 3007 3006 3008 3011 3014 3017 3020 3025 3029 3032 3036 3042 3047 3052 3057 3061 3065 3067
3061 3063 3064 3065 3066 3067 3068 3069 3070 3070 3071 3072 3072 3072 3073 3073 3073 3074 3074 3074 3074 3074 3074 3074 3075 3075 3075 3075 3075 3074 3074 3073 3071 3070 3069 3069 3068 3067 3065 3064 3063 3062 3060 3059 3056 3054 3051 3048 3045 3042 3038 3034 3031 3028 3024 3019 3014 3009 3003 2998 2993 2990 2988 2989 2991 2993 2993 2993 2995 2999 3004 3008 3009 3013 3017 3021 3026 3031 3036 3041 3046 3051 3055 3059 3062
3058 3059 3060 3061 3062 3063 3064 3065 3066 3066 3067 3067 3068 3068 3069 3069 3069 3069 3070 3070 3070 3070 3070 3070 3070 3070 3070 3070 3070 3070 3070 3069 3068 3067 3066 3064 3063 3062 3060 3059 3058 3056 3054 3051 3049 3046 3043 3041 3038 3034 3031 3027 3023 3019 3014 3009 3004 2998 2991 2986 2982 2979 2978 2980 2981 2979 2978 2978 2980 2983 2990 2998 3003 3007 3010 3014 3019 3025 3030 3034 3040 3046 3051 3054 3058
3055 3056 3057 3058 3059 3060 3060 3061 3062 3062 3063 3063 3064 3065 3065 3065 3065 3065 3065 3065 3065 3065 3065 3065 3066 3066 3066 3066 3066 3066 3066 3065 3064 3062 3061 3060 3059 3057 3055 3053 3052 3050 3047 3044 3041 3039 3036 3033 3029 3026 3023 3019 3015 3011 3006 3001 2995 2988 2982 2977 2974 2971 2969 2970 2970 2969 2968 2969 2968 2968 2976 2988 2997 3002 3005 3009 3014 3019 3023 3028 3035 3042 3047 3050 3053
3052 3052 3053 3054 3055 3056 3056 3057 3058 3058 3059 3060 3061 3061 3062 3062 3062 3061 3061 3061 3061 3061 3061 3062 3063 3063 3062 3062 3062 3062 3061 3060 3058 3057 3056 3055 3054 3052 3050 3049 3047 3045 3042 3039 3036 3033 3030 3025 3021 3017 3014 3010 3007 3003 3000 2995 2988 2982 2977 2972 2968 2965 2963 2962 2963 2964 2962 2959 2958 2965 2976 2985 2988 2991 2997 3003 3007 3011 3017 3024 3031 3037 3041 3045 3048
3048 3048 3049 3050 3050 3051 3052 3053 3054 3055 3055 3056 3056 3057 3057 3058 3058 3058 3058 3058 3058 3058 3058 3058 3059 3059 3059 3058 3057 3057 3056 3055 3054 3052 3051 3050 3049 3048 3046 3045 3043 3040 3037 3034 3031 3028 3025 3020 3016 3012 3007 3003 2999 2996 2992 2987 2981 2976 2971 2967 2963 2960 2957 2955 2955 2959 2960 2959 2961 2970 2980 2984 2986 2990 2997 3000 3002 3007 3014 3022 3028 3033 3037 3040 3043
3044 3045 3046 3046 3046 3047 3048 3049 3049 3051 3052 3052 3053 3053 3053 3054 3054 3055 3054 3054 3055 3055 3055 3054 3054 3054 3054 3054 3053 3052 3051 3051 3050 3049 3047 3046 3045 3044 3042 3041 3039 3036 3033 3030 3027 3024 3021 3017 3013 3009 3005 3001 2997 2993 2989 2984 2977 2970 2965 2960 2956 2954 2953 2953 2954 2954 2956 2959 2964 2971 2977 2983 2990 2996 3000 3003 3005 3010 3015 3021 3025 3029 3033 3035 3039
3041 3042 3043 3044 3044 3045 3046 3046 3047 3048 3049 3050 3050 3051 3051 3051 3052 3051 3051 3051 3051 3051 3051 3050 3049 3048 3049 3050 3050 3049 3048 3046 3046 3045 3044 3042 3041 3040 3038 3037 3035 3033 3031 3028 3025 3022 3018 3015 3012 3009 3006 3003 2999 2996 2993 2989 2983 2976 2969 2964 2960 2957 2956 2959 2962 2962 2961 2961 2966 2973 2980 2988 2994 2998 3003 3009 3013 3015 3018 3020 3024 3027 3030 3033 3036
3038 3038 3039 3041 3042 3043 3043 3044 3045 3046 3047 3047 3047 3048 3048 3049 3049 3048 3048 3048 3047 3046 3046 3046 3046 3045 3045 3045 3046 3046 3044 3043 3042 3042 3041 3040 3038 3036 3035 3033 3031 3030 3028 3026 3024 3020 3017 3014 3011 3009 3007 3005 3003 3000 2998 2995 2991 2985 2980 2977 2975 2972 2970 2970 2972 2974 2974 2974 2975 2979 2985 2992 2997 3002 3008 3014 3016 3018 3019 3021 3023 3026 3029 3032 3036
3036 3037 3037 3039 3039 3040 3041 3041 3042 3043 3044 3044 3045 3045 3046 3046 3045 3045 3045 3044 3044 3043 3043 3043 3043 3043 3042 3042 3041 3041 3041 3040 3039 3038 3038 3037 3035 3033 3032 3030 3028 3027 3025 3024 3022 3019 3016 3013 3010 3008 3006 3004 3003 3002 3002 3000 2996 2992 2989 2987 2986 2985 2984 2983 2984 2986 2987 2988 2989 2991 2995 2999 3003 3007 3011 3015 3017 3019 3021 3022 3023 3026 3029 3032 3034
3035 3035 3036 3037 3037 3038 3038 3039 3039 3040 3041 3042 3042 3043 3042 3042 3042 3042 3042 3041 3041 3041 3040 3040 3040 3040 3040 3039 3038 3037 3037 3036 3035 3035 3034 3033 3033 3031 3029 3028 3026 3025 3023 3022 3020 3018 3015 3013 3010 3008 3005 3003 3002 3001 3001 3001 2999 2996 2994 2993 2993 2992 2990 2990 2990 2992 2994 2996 2997 2999 3001 3003 3005 3007 3011 3015 3018 3020 3021 3022 3024 3026 3028 3030 3032
3034 3034 3034 3035 3035 3036 3036 3037 3037 3037 3038 3038 3039 3039 3039 3039 3039 3039 3038 3038 3038 3038 3038 3038 3037 3037 3036 3035 3034 3034 3034 3033 3033 3032 3031 3031 3030 3029 3027 3026 3024 3022 3021 3020 3019 3017 3015 3014 3012 3009 3007 3004 3002 3001 3001 3000 3000 2998 2996 2996 2995 2995 2994 2993 2993 2994 2996 2997 2998 3000 3001 3003 3006 3009 3013 3016 3019 3021 3022 3023 3024 3025 3027 3029 3030
3032 3032 3032 3033 3033 3034 3034 3034 3034 3034 3034 3035 3036 3036 3036 3036 3036 3035 3034 3034 3034 3034 3034 3034 3033 3033 3032 3031 3030 3030 3030 3030 3029 3028 3028 3028 3027 3026 3025 3023 3022 3020 3019 3018 3017 3016 3015 3014 3013 3011 3009 3007 3005 3004 3003 3002 3001 3000 2999 2998 2997 2997 2996 2996 2997 2997 2998 2999 3000 3001 3003 3005 3008 3012 3015 3018 3019 3021 3021 3021 3022 3023 3025 3026 3027
3030 3030 3030 3030 3030 3031 3031 3031 3032 3032 3032 3032 3033 3033 3033 3034 3033 3032 3031 3031 3030 3031 3031 3030 3030 3029 3029 3028 3027 3027 3027 3026 3025 3024 3024 3024 3024 3023 3022 3021 3020 3019 3018 3017 3016 3015 3014 3013 3013 3012 3010 3009 3007 3007 3006 3005 3004 3003 3002 3001 3001 3001 3001 3001 3001 3001 3002 3003 3004 3005 3007 3009 3011 3014 3016 3018 3019 3019 3019 3020 3020 3021 3022 3023 3024
3027 3027 3028 3028 3028 3029 3029 3029 3029 3029 3030 3030 3030 3030 3031 3031 3030 3029 3028 3027 3027 3027 3027 3026 3026 3026 3025 3025 3024 3023 3023 3022 3022 3021 3021 3021 3021 3020 3020 3019 3018 3018 3017 3016 3015 3014 3013 3012 3012 3011 3010 3009 3009 3008 3007 3007 3006 3005 3004 3004 3004 3004 3004 3004 3004 3005 3005 3006 3007 3009 3010 3012 3013 3015 3016 3017 3017 3017 3017 3017 3018 3019 3020 3021 3021